TimeMST,TemperatureF,Dew PointF,Humidity,Sea Level PressureIn,VisibilityMPH,Wind Direction,Wind SpeedMPH,Gust SpeedMPH,PrecipitationIn,Events,Conditions,WindDirDegrees,DateUTC
1:50 AM,33,31,88,30.24,1,NNE,2.2,,,,Overcast,20,2013-01-04 08:50:00
4:50 AM,32,31,92,30.24,1,NNE,2.2,,,,Overcast,20,2013-01-04 11:50:00
5:40 AM,32.0,32.0,100,30.38,8.0,Calm,Calm,-,N/A,,Overcast,0,2013-01-04 12:40:00
6:40 AM,32.0,32.0,100,30.27,8.0,Calm,Calm,-,N/A,,Overcast,0,2013-01-04 13:40:00
7:40 AM,32.0,32.0,100,30.38,8.0,North,4.6,-,N/A,,Overcast,10,2013-01-04 14:40:00
7:45 AM,32,31,95,30.29,6,NNE,2.2,,,,Overcast,20,2013-01-04 14:45:00
8:40 AM,32.0,32.0,100,30.32,4.0,NNE,4.6,-,N/A,,Overcast,30,2013-01-04 15:40:00
9:40 AM,32.0,32.0,100,30.33,6.0,ENE,5.8,-,N/A,,Overcast,60,2013-01-04 16:40:00
10:40 AM,32.0,32.0,100,30.45,3.0,North,5.8,-,N/A,,Overcast,350,2013-01-04 17:40:00
10:45 AM,33,32,93,30.32,4,NNE,2.2,,,,Overcast,20,2013-01-04 17:45:00
11:40 AM,32.0,32.0,100,30.31,2.0,North,3.5,-,N/A,,Overcast,350,2013-01-04 18:40:00
12:44 PM,32.0,32.0,100,30.27,5.0,NE,3.5,-,N/A,,Overcast,50,2013-01-04 19:44:00
1:40 PM,33.8,33.8,100,30.34,5.0,East,3.5,-,N/A,,Overcast,100,2013-01-04 20:40:00
1:50 PM,36,33,83,30.23,6,ENE,2.2,,,,Overcast,70,2013-01-04 20:50:00
2:40 PM,35.6,35.6,100,30.24,7.0,Calm,Calm,-,N/A,,Overcast,0,2013-01-04 21:40:00
3:40 PM,35.6,33.8,93,30.25,7.0,North,3.5,-,N/A,,Overcast,360,2013-01-04 22:40:00
4:44 PM,35.6,33.8,93,30.35,10.0,North,4.6,-,N/A,,Overcast,350,2013-01-04 23:44:00
4:45 PM,37,33,80,30.23,6,NNE,2.2,,,,Overcast,20,2013-01-04 23:45:00
5:40 PM,35.6,33.8,93,30.27,10.0,North,4.6,-,N/A,,Overcast,360,2013-01-05 00:40:00
6:41 PM,35.6,35.6,100,30.30,10.0,East,5.8,-,N/A,,Overcast,100,2013-01-05 01:41:00
7:42 PM,35.6,35.6,100,30.41,10.0,NNE,3.5,-,N/A,,Overcast,30,2013-01-05 02:42:00
7:45 PM,37,34,83,30.27,1,NNE,4.5,,,,Overcast,20,2013-01-05 02:45:00
8:40 PM,35.6,35.6,100,30.32,10.0,North,5.8,-,N/A,,Overcast,360,2013-01-05 03:40:00
10:45 PM,37,33,80,30.27,1,Calm,Calm,,,,Overcast,,2013-01-05 05:45:00